| time (UTC) | temp F | wind direction | speed MPH | gust MPH | rain 1hr in | rain 24hr in | rain mn in | humidity % | barometer mb |
| 20260504100550 | 49 | 145 | 1.0 | 3.0 | 0.00 | 0.00 | 0.00 | 67 | 1014.9 |
| 20260504081557 | 50 | 0 | 0.0 | 1.0 | 0.00 | 0.00 | 0.00 | 61 | 1015.4 |
| 20260504081049 | 50 | 0 | 0.0 | 2.0 | 0.00 | 0.00 | 0.00 | 61 | 1015.4 |
| 20260504080554 | 49 | 149 | 0.0 | 2.0 | 0.00 | 0.00 | 0.00 | 59 | 1015.4 |
| 20260504050550 | 48 | 132 | 0.0 | 1.0 | 0.00 | 0.00 | 0.00 | 56 | 1015.9 |
| 20260504050106 | 48 | 149 | 0.0 | 1.0 | 0.00 | 0.00 | 0.00 | 55 | 1015.7 |
| 20260504045548 | 48 | 148 | 0.0 | 0.0 | 0.00 | 0.00 | 0.00 | 55 | 1015.7 |
| 20260504045051 | 49 | 0 | 0.0 | 2.0 | 0.00 | 0.00 | 0.00 | 54 | 1015.7 |
| 20260504044554 | 49 | 0 | 0.0 | 2.0 | 0.00 | 0.00 | 0.00 | 53 | 1015.7 |
| 20260504044048 | 49 | 0 | 1.0 | 2.0 | 0.00 | 0.00 | 0.00 | 53 | 1015.7 |
| 20260504043548 | 49 | 167 | 0.0 | 2.0 | 0.00 | 0.00 | 0.00 | 53 | 1015.7 |
| 20260504043058 | 49 | 0 | 0.0 | 2.0 | 0.00 | 0.00 | 0.00 | 53 | 1015.7 |
| 20260504042548 | 48 | 155 | 0.0 | 2.0 | 0.00 | 0.00 | 0.00 | 53 | 1015.8 |
| 20260504042050 | 48 | 172 | 0.0 | 2.0 | 0.00 | 0.00 | 0.00 | 54 | 1015.8 |
| 20260504041550 | 48 | 0 | 0.0 | 2.0 | 0.00 | 0.00 | 0.00 | 55 | 1015.7 |
| 20260504041050 | 48 | 186 | 0.0 | 1.0 | 0.00 | 0.00 | 0.00 | 54 | 1015.7 |
| 20260504040550 | 49 | 186 | 0.0 | 2.0 | 0.00 | 0.00 | 0.00 | 54 | 1015.7 |
| 20260504035551 | 49 | 231 | 0.0 | 2.0 | 0.00 | 0.00 | 0.00 | 54 | 1015.8 |
| 20260504035049 | 49 | 170 | 0.0 | 2.0 | 0.00 | 0.00 | 0.00 | 53 | 1015.7 |
| 20260504034611 | 49 | 143 | 1.0 | 2.0 | 0.00 | 0.00 | 0.00 | 53 | 1015.7 |
| 20260504034053 | 49 | 127 | 1.0 | 2.0 | 0.00 | 0.00 | 0.00 | 53 | 1015.7 |
| 20260504033550 | 49 | 160 | 0.0 | 2.0 | 0.00 | 0.00 | 0.00 | 53 | 1015.6 |
| 20260504033050 | 50 | 167 | 0.0 | 2.0 | 0.00 | 0.00 | 0.00 | 52 | 1015.5 |
| 20260504032551 | 50 | 151 | 0.0 | 2.0 | 0.00 | 0.00 | 0.00 | 51 | 1015.6 |
| 20260504032049 | 50 | 214 | 1.0 | 2.0 | 0.00 | 0.00 | 0.00 | 51 | 1015.5 |
| 20260504031555 | 49 | 150 | 1.0 | 2.0 | 0.00 | 0.00 | 0.00 | 52 | 1015.5 |
| 20260504031050 | 48 | 162 | 1.0 | 2.0 | 0.00 | 0.00 | 0.00 | 53 | 1015.4 |
| 20260504030554 | 48 | 201 | 0.0 | 1.0 | 0.00 | 0.00 | 0.00 | 55 | 1015.4 |
| 20260504030053 | 47 | 225 | 1.0 | 1.0 | 0.00 | 0.00 | 0.00 | 58 | 1015.4 |
| 20260504025550 | 47 | 213 | 0.0 | 1.0 | 0.00 | 0.00 | 0.00 | 59 | 1015.3 |
| 20260504025050 | 48 | 0 | 0.0 | 2.0 | 0.00 | 0.00 | 0.00 | 56 | 1015.2 |
| 20260504024554 | 48 | 213 | 0.0 | 2.0 | 0.00 | 0.00 | 0.00 | 54 | 1015.3 |
| 20260504024050 | 48 | 212 | 0.0 | 1.0 | 0.00 | 0.00 | 0.00 | 54 | 1015.4 |
| 20260504023548 | 48 | 229 | 0.0 | 1.0 | 0.00 | 0.00 | 0.00 | 56 | 1015.3 |
| 20260504023053 | 48 | 229 | 0.0 | 1.0 | 0.00 | 0.00 | 0.00 | 56 | 1015.3 |
| 20260504022548 | 48 | 229 | 0.0 | 1.0 | 0.00 | 0.00 | 0.00 | 56 | 1015.4 |
| 20260504022051 | 48 | 0 | 0.0 | 1.0 | 0.00 | 0.00 | 0.00 | 58 | 1015.3 |
| 20260504021553 | 49 | 229 | 0.0 | 1.0 | 0.00 | 0.00 | 0.00 | 55 | 1015.4 |
| 20260504021052 | 49 | 222 | 1.0 | 1.0 | 0.00 | 0.00 | 0.00 | 54 | 1015.4 |
| 20260504020554 | 49 | 222 | 0.0 | 1.0 | 0.00 | 0.00 | 0.00 | 55 | 1015.4 |
| 20260504020115 | 49 | 222 | 0.0 | 1.0 | 0.00 | 0.00 | 0.00 | 54 | 1015.3 |
| 20260504015552 | 49 | 0 | 0.0 | 1.0 | 0.00 | 0.00 | 0.00 | 54 | 1015.2 |
| 20260504015051 | 49 | 222 | 0.0 | 1.0 | 0.00 | 0.00 | 0.00 | 52 | 1015.1 |
| 20260504014601 | 49 | 0 | 0.0 | 1.0 | 0.00 | 0.00 | 0.00 | 52 | 1015.0 |
| 20260504014051 | 49 | 0 | 0.0 | 1.0 | 0.00 | 0.00 | 0.00 | 57 | 1015.1 |
| 20260504013548 | 49 | 212 | 0.0 | 1.0 | 0.00 | 0.00 | 0.00 | 56 | 1015.2 |
| 20260504013111 | 49 | 0 | 1.0 | 1.0 | 0.00 | 0.00 | 0.00 | 57 | 1015.1 |
| 20260504012549 | 49 | 212 | 0.0 | 1.0 | 0.00 | 0.00 | 0.00 | 55 | 1015.0 |
| 20260504012048 | 50 | 194 | 0.0 | 1.0 | 0.00 | 0.00 | 0.00 | 55 | 1015.0 |
| 20260504011554 | 50 | 194 | 0.0 | 1.0 | 0.00 | 0.00 | 0.00 | 52 | 1015.0 |
| 20260504011050 | 50 | 0 | 0.0 | 1.0 | 0.00 | 0.00 | 0.00 | 52 | 1015.0 |
| 20260504010550 | 50 | 192 | 0.0 | 1.0 | 0.00 | 0.00 | 0.00 | 50 | 1015.0 |
| 20260504010057 | 50 | 0 | 0.0 | 1.0 | 0.00 | 0.00 | 0.00 | 52 | 1015.0 |
| 20260504005549 | 50 | 0 | 0.0 | 0.0 | 0.00 | 0.00 | 0.00 | 54 | 1015.0 |
| 20260504005048 | 51 | 0 | 0.0 | 1.0 | 0.00 | 0.00 | 0.00 | 54 | 1014.9 |
| 20260504004552 | 51 | 0 | 0.0 | 1.0 | 0.00 | 0.00 | 0.00 | 51 | 1014.8 |
| 20260504004051 | 51 | 199 | 0.0 | 1.0 | 0.00 | 0.00 | 0.00 | 49 | 1014.8 |
| 20260504003550 | 51 | 0 | 0.0 | 1.0 | 0.00 | 0.00 | 0.00 | 49 | 1014.8 |
| 20260504003053 | 52 | 0 | 0.0 | 1.0 | 0.00 | 0.00 | 0.00 | 49 | 1014.8 |
| 20260504002550 | 52 | 0 | 0.0 | 1.0 | 0.00 | 0.00 | 0.00 | 49 | 1014.6 |
| 20260504002050 | 52 | 276 | 0.0 | 1.0 | 0.00 | 0.00 | 0.00 | 49 | 1014.6 |
| 20260504001556 | 53 | 276 | 0.0 | 1.0 | 0.00 | 0.00 | 0.00 | 50 | 1014.5 |
| 20260504001050 | 53 | 276 | 0.0 | 1.0 | 0.00 | 0.00 | 0.00 | 48 | 1014.5 |
| 20260504000549 | 54 | 276 | 0.0 | 1.0 | 0.00 | 0.00 | 0.00 | 46 | 1014.5 |
| 20260504000053 | 55 | 276 | 0.0 | 1.0 | 0.00 | 0.00 | 0.00 | 46 | 1014.5 |
| 20260503235551 | 55 | 0 | 0.0 | 1.0 | 0.00 | 0.00 | 0.00 | 44 | 1014.6 |
| 20260503235048 | 56 | 0 | 0.0 | 0.0 | 0.00 | 0.00 | 0.00 | 42 | 1014.5 |
| 20260503234555 | 57 | 0 | 0.0 | 1.0 | 0.00 | 0.00 | 0.00 | 41 | 1014.4 |
| 20260503234049 | 58 | 0 | 0.0 | 2.0 | 0.00 | 0.00 | 0.00 | 39 | 1014.4 |
| 20260503233550 | 59 | 278 | 1.0 | 3.0 | 0.00 | 0.00 | 0.00 | 38 | 1014.3 |
| 20260503233052 | 60 | 275 | 1.0 | 3.0 | 0.00 | 0.00 | 0.00 | 37 | 1014.2 |
| 20260503232550 | 61 | 297 | 1.0 | 3.0 | 0.00 | 0.00 | 0.00 | 35 | 1014.3 |
| 20260503232047 | 62 | 297 | 1.0 | 2.0 | 0.00 | 0.00 | 0.00 | 37 | 1014.2 |
| 20260503231552 | 61 | 291 | 1.0 | 4.0 | 0.00 | 0.00 | 0.00 | 36 | 1014.1 |
| 20260503231048 | 61 | 291 | 0.0 | 5.0 | 0.00 | 0.00 | 0.00 | 37 | 1014.1 |
| 20260503230552 | 61 | 274 | 1.0 | 5.0 | 0.00 | 0.00 | 0.00 | 35 | 1014.1 |
| 20260503230053 | 60 | 131 | 0.0 | 5.0 | 0.00 | 0.00 | 0.00 | 34 | 1014.1 |
| 20260503225548 | 60 | 0 | 1.0 | 4.0 | 0.00 | 0.00 | 0.00 | 38 | 1014.1 |
| 20260503225048 | 60 | 296 | 1.0 | 4.0 | 0.00 | 0.00 | 0.00 | 36 | 1014.2 |
| 20260503224601 | 60 | 286 | 2.0 | 5.0 | 0.00 | 0.00 | 0.00 | 36 | 1014.2 |
| 20260503224048 | 60 | 264 | 2.0 | 5.0 | 0.00 | 0.00 | 0.00 | 35 | 1014.2 |
| 20260503223601 | 60 | 309 | 2.0 | 8.0 | 0.00 | 0.00 | 0.00 | 35 | 1014.1 |
| 20260503223448 | 60 | 288 | 0.0 | 8.0 | 0.00 | 0.00 | 0.00 | 38 | 1014.2 |
| 20260503222053 | 60 | 238 | 2.0 | 4.0 | 0.00 | 0.00 | 0.00 | 36 | 1014.1 |
| 20260503221601 | 60 | 300 | 1.0 | 4.0 | 0.00 | 0.00 | 0.00 | 36 | 1014.1 |
| 20260503221053 | 60 | 308 | 1.0 | 5.0 | 0.00 | 0.00 | 0.00 | 37 | 1014.1 |
| 20260503220551 | 60 | 302 | 2.0 | 7.0 | 0.00 | 0.00 | 0.00 | 36 | 1014.0 |
| 20260503220054 | 60 | 311 | 2.0 | 8.0 | 0.00 | 0.00 | 0.00 | 36 | 1014.0 |
| 20260503215550 | 60 | 293 | 4.0 | 10.0 | 0.00 | 0.00 | 0.00 | 34 | 1014.2 |
| 20260503215051 | 61 | 300 | 4.0 | 11.0 | 0.00 | 0.00 | 0.00 | 35 | 1014.2 |
| 20260503214553 | 61 | 181 | 3.0 | 11.0 | 0.00 | 0.00 | 0.00 | 33 | 1014.2 |
| 20260503214054 | 60 | 284 | 1.0 | 6.0 | 0.00 | 0.00 | 0.00 | 35 | 1014.2 |
| 20260503213550 | 60 | 309 | 3.0 | 7.0 | 0.00 | 0.00 | 0.00 | 37 | 1014.2 |
| 20260503213053 | 60 | 276 | 2.0 | 7.0 | 0.00 | 0.00 | 0.00 | 36 | 1014.2 |
| 20260503212551 | 60 | 282 | 2.0 | 6.0 | 0.00 | 0.00 | 0.00 | 35 | 1014.3 |
| 20260503212050 | 60 | 316 | 1.0 | 8.0 | 0.00 | 0.00 | 0.00 | 36 | 1014.1 |
| 20260503211559 | 60 | 248 | 2.0 | 8.0 | 0.00 | 0.00 | 0.00 | 38 | 1014.1 |
| 20260503211053 | 60 | 297 | 3.0 | 9.0 | 0.00 | 0.00 | 0.00 | 36 | 1014.2 |
| 20260503210548 | 60 | 323 | 3.0 | 9.0 | 0.00 | 0.00 | 0.00 | 34 | 1014.2 |
| 20260503210054 | 60 | 308 | 4.0 | 9.0 | 0.00 | 0.00 | 0.00 | 35 | 1014.2 |
| 20260503205549 | 60 | 316 | 4.0 | 9.0 | 0.00 | 0.00 | 0.00 | 33 | 1014.2 |
| 20260503205051 | 60 | 309 | 4.0 | 9.0 | 0.00 | 0.00 | 0.00 | 36 | 1014.3 |
| 20260503204616 | 59 | 288 | 2.0 | 9.0 | 0.00 | 0.00 | 0.00 | 36 | 1014.2 |
| 20260503204051 | 59 | 283 | 2.0 | 7.0 | 0.00 | 0.00 | 0.00 | 37 | 1014.2 |
| 20260503203550 | 59 | 296 | 2.0 | 7.0 | 0.00 | 0.00 | 0.00 | 34 | 1014.2 |
| 20260503203102 | 59 | 266 | 4.0 | 9.0 | 0.00 | 0.00 | 0.00 | 36 | 1014.3 |
| 20260503202553 | 59 | 293 | 4.0 | 9.0 | 0.00 | 0.00 | 0.00 | 38 | 1014.3 |
| 20260503202049 | 60 | 269 | 3.0 | 15.0 | 0.00 | 0.00 | 0.00 | 35 | 1014.4 |
| 20260503201558 | 59 | 253 | 3.0 | 15.0 | 0.00 | 0.00 | 0.00 | 35 | 1014.3 |
| 20260503201047 | 60 | 305 | 3.0 | 6.0 | 0.00 | 0.00 | 0.00 | 38 | 1014.5 |
| 20260503200548 | 60 | 262 | 2.0 | 6.0 | 0.00 | 0.00 | 0.00 | 38 | 1014.4 |
| 20260503200053 | 60 | 129 | 3.0 | 9.0 | 0.00 | 0.00 | 0.00 | 37 | 1014.4 |
| 20260503195549 | 59 | 307 | 3.0 | 11.0 | 0.00 | 0.00 | 0.00 | 36 | 1014.5 |
| 20260503195048 | 60 | 302 | 5.0 | 11.0 | 0.00 | 0.00 | 0.00 | 36 | 1014.6 |
| 20260503194609 | 60 | 274 | 5.0 | 9.0 | 0.00 | 0.00 | 0.00 | 36 | 1014.7 |
| 20260503194048 | 60 | 284 | 3.0 | 9.0 | 0.00 | 0.00 | 0.00 | 41 | 1014.8 |
| 20260503193548 | 60 | 255 | 5.0 | 14.0 | 0.00 | 0.00 | 0.00 | 38 | 1015.0 |
| 20260503193118 | 60 | 309 | 4.0 | 14.0 | 0.00 | 0.00 | 0.00 | 40 | 1014.9 |
| 20260503192550 | 59 | 315 | 5.0 | 14.0 | 0.00 | 0.00 | 0.00 | 41 | 1015.2 |
| 20260503192048 | 58 | 276 | 4.0 | 11.0 | 0.00 | 0.00 | 0.00 | 39 | 1014.9 |
| 20260503191611 | 59 | 274 | 3.0 | 8.0 | 0.00 | 0.00 | 0.00 | 37 | 1015.3 |
| 20260503191048 | 60 | 300 | 2.0 | 8.0 | 0.00 | 0.00 | 0.00 | 39 | 1015.1 |
| 20260503190550 | 59 | 265 | 2.0 | 11.0 | 0.00 | 0.00 | 0.00 | 39 | 1015.2 |
| 20260503190054 | 59 | 309 | 4.0 | 11.0 | 0.00 | 0.00 | 0.00 | 37 | 1015.3 |
| 20260503185553 | 59 | 304 | 4.0 | 11.0 | 0.00 | 0.00 | 0.00 | 42 | 1015.3 |
| 20260503185051 | 59 | 287 | 4.0 | 12.0 | 0.00 | 0.00 | 0.00 | 38 | 1015.4 |
| 20260503184556 | 59 | 319 | 4.0 | 12.0 | 0.00 | 0.00 | 0.00 | 40 | 1015.4 |
| 20260503184051 | 59 | 250 | 5.0 | 12.0 | 0.00 | 0.00 | 0.00 | 38 | 1015.6 |
| 20260503183554 | 59 | 290 | 5.0 | 12.0 | 0.00 | 0.00 | 0.00 | 36 | 1015.6 |
| 20260503183054 | 60 | 274 | 4.0 | 12.0 | 0.00 | 0.00 | 0.00 | 39 | 1015.6 |
| 20260503182551 | 59 | 303 | 5.0 | 12.0 | 0.00 | 0.00 | 0.00 | 41 | 1015.7 |
| 20260503182055 | 59 | 11 | 3.0 | 10.0 | 0.00 | 0.00 | 0.00 | 44 | 1015.7 |
| 20260503181554 | 59 | 317 | 4.0 | 10.0 | 0.00 | 0.00 | 0.00 | 40 | 1015.8 |
| 20260503181051 | 58 | 354 | 2.0 | 9.0 | 0.00 | 0.00 | 0.00 | 42 | 1015.8 |
| 20260503180551 | 57 | 274 | 4.0 | 9.0 | 0.00 | 0.00 | 0.00 | 41 | 1015.8 |
| 20260503180100 | 58 | 311 | 4.0 | 8.0 | 0.00 | 0.00 | 0.00 | 40 | 1015.9 |
| 20260503175549 | 58 | 326 | 4.0 | 10.0 | 0.00 | 0.00 | 0.00 | 41 | 1015.9 |
| 20260503175050 | 58 | 290 | 2.0 | 10.0 | 0.00 | 0.00 | 0.00 | 40 | 1016.1 |
| 20260503174555 | 59 | 314 | 3.0 | 8.0 | 0.00 | 0.00 | 0.00 | 40 | 1016.0 |
| 20260503174048 | 58 | 273 | 4.0 | 8.0 | 0.00 | 0.00 | 0.00 | 41 | 1016.0 |
| 20260503173548 | 57 | 68 | 3.0 | 10.0 | 0.00 | 0.00 | 0.00 | 42 | 1016.0 |
| 20260503173051 | 57 | 315 | 3.0 | 10.0 | 0.00 | 0.00 | 0.00 | 42 | 1016.0 |
| 20260503172550 | 57 | 94 | 5.0 | 9.0 | 0.00 | 0.00 | 0.00 | 40 | 1016.2 |
| 20260503172048 | 57 | 4 | 3.0 | 11.0 | 0.00 | 0.00 | 0.00 | 44 | 1016.1 |
| 20260503171554 | 57 | 311 | 4.0 | 11.0 | 0.00 | 0.00 | 0.00 | 45 | 1016.1 |
| 20260503171052 | 57 | 288 | 3.0 | 9.0 | 0.00 | 0.00 | 0.00 | 42 | 1016.0 |
| 20260503170551 | 58 | 321 | 2.0 | 11.0 | 0.00 | 0.00 | 0.00 | 44 | 1016.2 |
| 20260503160106 | 56 | 314 | 2.0 | 7.0 | 0.00 | 0.00 | 0.00 | 43 | 1016.5 |
| 20260503150549 | 53 | 318 | 3.0 | 11.0 | 0.00 | 0.00 | 0.00 | 47 | 1016.6 |
| 20260503131050 | 48 | 259 | 4.0 | 11.0 | 0.00 | 0.00 | 0.00 | 53 | 1016.8 |
| 20260503130551 | 48 | 324 | 5.0 | 10.0 | 0.00 | 0.00 | 0.00 | 55 | 1016.8 |
| 20260503110547 | 40 | 295 | 3.0 | 10.0 | 0.00 | 0.00 | 0.00 | 73 | 1016.0 |